Regional Weather Roundup
Issued by NWS Upton, NY

Current Version | Previous Version | Graphics & Text | Print | Product List | Glossary Off
Versions: 1 2 3 4 5 6 7 8 9 10 11 12 13 14 15 16 17 18 19 20 21 22 23 24 25 26 27

000
ASUS41 KOKX 010504
RWROKX

REGIONAL WEATHER ROUNDUP
NATIONAL WEATHER SERVICE NEW YORK NY
100 AM EDT SUN MAY 01 2016

NOTE: "FAIR" INDICATES FEW OR NO CLOUDS BELOW 12,000 FEET WITH NO
SIGNIFICANT WEATHER AND/OR OBSTRUCTIONS TO VISIBILITY.

NYZ071-072-176-178-NJZ106-104-010600-
NEW YORK CITY METRO AREA


CITY           SKY/WX    TMP DP  RH WIND       PRES   REMARKS
CENTRAL PARK   CLOUDY    50  32  50 VRB3      30.26S
LAGUARDIA APRT CLOUDY    51  37  58 S7        30.24S
KENNEDY INTL   CLOUDY    49  38  65 SE7       30.25F
NEWARK/LIBERTY CLOUDY    51  39  63 S7        30.23F
BRNX BOT. GARD   N/A     48  37  66 S6        30.24S
TETERBORO      CLOUDY    51  36  56 S5        30.22F
$$

NYZ177-179-078>081-010600-
LONG ISLAND NEW YORK

CITY           SKY/WX    TMP DP  RH WIND       PRES   REMARKS
FARMINGDALE    MOCLDY    48  38  68 S5        30.24F
ISLIP          CLOUDY    48  37  65 S3        30.24S
SHIRLEY        CLOUDY    45  39  79 CALM      30.25F
RIVERHEAD        N/A     41  39  93 CALM      30.25S
WESTHAMPTON    CLOUDY    38  35  89 CALM      30.26F
EAST HAMPTON   FAIR      35  32  90 CALM      30.25S
MONTAUK POINT    N/A     42  36  79 CALM      30.27F
$$

NYZ052-065-067-010600-
HUDSON VALLEY

CITY           SKY/WX    TMP DP  RH WIND       PRES   REMARKS
WHITE PLAINS   CLOUDY    46  37  71 S5        30.23F
NEWBURGH       PTCLDY    50  34  53 VRB5      30.21S
MONTGOMERY     CLOUDY    50  36  58 S5        30.20F
POUGHKEEPSIE   CLOUDY    52  38  58 SE6       30.20F
ALBANY         CLOUDY    54  39  57 S8        30.17F
$$

NJZ001-105-106-008-010-013-015-019>022-104-010600-
NEW JERSEY

CITY           SKY/WX    TMP DP  RH WIND       PRES   REMARKS
NEWARK/LIBERTY CLOUDY    51  39  63 S7        30.23F
TETERBORO      CLOUDY    51  36  56 S5        30.22F
CALDWELL       CLOUDY    51  36  56 S3        30.23F
MORRISTOWN     CLOUDY    46  37  71 CALM      30.23S
SOMERVILLE     CLOUDY    49  36  61 SE3       30.21F
SUSSEX         MOCLDY    48  42  80 CALM      30.20F
ANDOVER          N/A     50  33  52 SE3       30.19F
TRENTON        LGT RAIN  49  36  61 S6        30.22F
MILLVILLE      CLOUDY    47  42  83 E5        30.22F
ATLANTIC CITY  CLOUDY    49  43  80 SE5       30.23F
WRIGHTSTOWN    CLOUDY    45  39  80 VRB2      30.20F
TOMS RIVER     CLOUDY    43  37  81 CALM      30.24F
BELMAR         MOCLDY    47  40  76 E5        30.24F
$$

PAZ047>061-062-071-010600-
EASTERN PENNSYLVANIA

CITY           SKY/WX    TMP DP  RH WIND       PRES   REMARKS
PHILADELPHIA   CLOUDY    51  36  56 S6        30.23S
ALLENTOWN      CLOUDY    53  39  59 S6        30.20S
SCRANTON       LGT RAIN  52  41  66 S8G16     30.15S
$$

CTZ002-004>006-009-010-012-RIZ004-006-007-MAZ004-011-015-010600-
SOUTHERN NEW ENGLAND
 IN CT

CITY           SKY/WX    TMP DP  RH WIND       PRES   REMARKS
BRADLEY INTL   MOCLDY    46  33  60 S8        30.22F
HARTFORD       PTCLDY    47  35  63 VRB5      30.24F
DANBURY        CLOUDY    46  37  71 CALM      30.24S
WTRBRY/OXFORD    N/A     45  36  70 S3        30.25R
BRIDGEPORT     CLOUDY    49  37  63 S3        30.25S
MERIDEN        CLOUDY    45  35  68 CALM      30.24F
NEW HAVEN      CLOUDY    46  36  68 S5        30.25S
CHESTER        FAIR      43  37  81 CALM      30.24S
GROTON         CLEAR     41  41 100 CALM      30.25F
WILLIMANTIC    CLEAR     42  35  76 CALM      30.24F

 IN RI

CITY           SKY/WX    TMP DP  RH WIND       PRES   REMARKS
PROVIDENCE     CLEAR     43  34  70 SW3       30.26F
BLOCK ISLAND   CLEAR     40  34  79 CALM      30.25F
WESTERLY       CLEAR     39  33  79 CALM      30.25F

 IN MA

CITY           SKY/WX    TMP DP  RH WIND       PRES   REMARKS
BOSTON         PTCLDY    45  34  65 SW6       30.25F
WORCESTER      CLEAR     41  28  60 SW9       30.21F
WESTFIELD      PTCLDY    46  32  58 S6        30.22F
PROVINCETOWN   CLEAR     43  37  79 SW7       30.27S
NANTUCKET      CLEAR     38  33  82 CALM      30.26S
$$

ANZ330-335-338-340-345-350-353-355-010600-
COASTAL MARINE OBSERVATIONS


STATION/POSITION TIME  SKY/WX   TEMP    WIND        PRES    VSBY  WAVE
                                AIR SEA DIR/SP/G                  HT/PER
                 (UTC)          (F)     (DEG/KT/KT) (MB)    (MI)  (FT/S)
NY HARB ENTRANCE 0350            49 51  130/  8/ 10 1023.7          4/ 7
20S FIRE ISLAND  0350            47 49  120/  6/  8 1024.2          5/ 8
GREAT SOUTH BAY  0400            48 57  160/  6/  8   N/A
23 SSW MONTAUK P 0450            45 47  150/  4/  6 1024.1          4/ 7
15 E BARNEGAT LI 0422               51                N/A           5/ 8
HUDSON CANYON    0350            48 48              1023.3          5/ 8
KINGS POINT      0400            49 54              1023.8
EXECUTION ROCKS  NOT AVBL
CENTRAL LI SOUND 0400            47     180/  4/  6   N/A           1
EASTERN LI SOUND 0400            47 49  200/  4/  6   N/A
ROBBINS REEF     0400            50     150/  9/ 11 1023.3
$$


>>>>>>>>>>>>>>>>>>>>>>>>>>>> KEY <<<<<<<<<<<<<<<<<<<<<<<<<<<
>                                                          <
>     SKY/WX - SKY CONDITION/PRESENT WEATHER               <
>     TMP    - TEMPERATURE IN FAHRENHEIT                   <
>     DP     - DEWPOINT IN FAHRENHEIT                      <
>     RH     - RELATIVE HUMIDITY IN PERCENT                <
>     WIND   - DIRECTION AND SPEED IN MPH                  <
>     PRES   - MEAN SEA LEVEL PRESSURE IN INCHES OF HG     <
>     WCI    - WIND CHILL INDEX                            <
>     VSB    - VISIBILITY IN MILES                         <
>     HX     - HEAT INDEX                                  <
>     TC     - TEMPERATURE IN CELSIUS                      <
>     VRB    - VARIABLE WIND DIRECTION                     <
>                                                          <
>>>>>>>>>>>>>>>>>>>>>>>>>>>> KEY <<<<<<<<<<<<<<<<<<<<<<<<<<<






USA.gov is the U.S. government's official web portal to all federal, state and local government web resources and services.